Location: Peach Mountain Observatory
(42.3967°N, 83.9367°W)
Time: 19:18:24
(UTC-05:00)

S-56A Canister/Altair - Pass Details

Date: 30 January 2020
Orbit: 633 x 2499 km, 38.9° (Epoch: 23 February)

Event Time Altitude Azimuth Distance (km) Brightness Sun altitude
Rises 16:40:38 0° 203° (SSW) 5,554 13.0 9.8°
Reaches altitude 10° 16:45:49 10° 190° (S) 4,221 12.1 9.0°
Maximum altitude 16:53:00 21° 148° (SSE) 2,927 10.6 7.9°
Drops below altitude 10° 16:58:37 10° 104° (ESE) 3,197 10.3 7.0°
Sets 17:01:50 0° 88° (E) 3,882 10.6 6.5°
